Satellite: MO-46
Catalog number: 26548
Epoch time:      04218.16579883
Element set:     942
Inclination:       64.5562 deg
RA of node:       177.2731 deg
Eccentricity:    0.0013876
Arg of perigee:   343.2542 deg
Mean anomaly:      16.8092 deg
Mean motion:   14.82359913 rev/day
Decay rate:       1.40e-06 rev/day^2
Epoch rev:           20843
Checksum:              319

Satellite: SO-42
Catalog number: 26549
Epoch time:      04218.23300658
Element set:     937
Inclination:       64.5539 deg
RA of node:       197.4308 deg
Eccentricity:    0.0013937
Arg of perigee:    31.9548 deg
Mean anomaly:     328.2398 deg
Mean motion:   14.78714725 rev/day
Decay rate:       -5.2e-07 rev/day^2
Epoch rev:           20803
Checksum:              323

Satellite: NO-44
Catalog number: 26931
Epoch time:      04218.04251243
Element set:     824
Inclination:       67.0544 deg
RA of node:       321.9880 deg
Eccentricity:    0.0006110
Arg of perigee:   273.4932 deg
Mean anomaly:      86.5471 deg
Mean motion:   14.29312379 rev/day
Decay rate:       -6.5e-07 rev/day^2
Epoch rev:           14858
Checksum:              295

Satellite: AO-49
Catalog number: 27605
Epoch time:      04218.75831490
Element set:     503
Inclination:       64.5595 deg
RA of node:        14.2659 deg
Eccentricity:    0.0080004
Arg of perigee:   301.8754 deg
Mean anomaly:      57.4550 deg
Mean motion:   14.71906817 rev/day
Decay rate:        3.7e-07 rev/day^2
Epoch rev:            8742
Checksum:              306

Satellite: SO-50
Catalog number: 27607
Epoch time:      04217.94219573
Element set:     487
Inclination:       64.5590 deg
RA of node:        20.6025 deg
Eccentricity:    0.0081002
Arg of perigee:   300.9230 deg
Mean anomaly:      58.3933 deg
Mean motion:   14.70688687 rev/day
Decay rate:        6.8e-07 rev/day^2
Epoch rev:            8722
Checksum:              302

Satellite: AO-51
Catalog number: 28375
Epoch time:      04218.13425937
Element set:      34
Inclination:       98.2572 deg
RA of node:       286.4665 deg
Eccentricity:    0.0085234
Arg of perigee:   105.0105 deg
Mean anomaly:     256.0534 deg
Mean motion:   14.40380000 rev/day
Decay rate:        3.8e-07 rev/day^2
Epoch rev:             511
Checksum:              265

>/EX
SB KEPS @ AMSAT  $ORB04218.W
Orbital Elements  04218.WEATHER

HR AMSAT ORBITAL ELEMENTS FOR WEATHER SATELLITES
FROM WA5QGD FORT WORTH,TX August 5, 2004
SEND SUBSCRIBE/UNSUBSCRIBE TO majordomo@amsat.org ONLY
BID: ORB04218.W
TO ALL RADIO AMATEURS BT

Satellite: NOAA-10
Catalog number: 16969
Epoch time:      04218.50338971
Element set:     342
Inclination:       98.7550 deg
RA of node:       217.6187 deg
Eccentricity:    0.0012106
Arg of perigee:   336.6720 deg
Mean anomaly:      23.3912 deg
Mean motion:   14.27206032 rev/day
Decay rate:       -5.1e-07 rev/day^2
Epoch rev:           93006
Checksum:              278

Satellite: NOAA-11
Catalog number: 19531
Epoch time:      04218.30107180
Element set:     199
Inclination:       98.8660 deg
RA of node:       301.8831 deg
Eccentricity:    0.0012522
Arg of perigee:   124.3539 deg
Mean anomaly:     235.8852 deg
Mean motion:   14.14723251 rev/day
Decay rate:        2.5e-07 rev/day^2
Epoch rev:           81826
Checksum:              281

Satellite: NOAA-12
Catalog number: 21263
Epoch time:      04218.23734905
Element set:     682
Inclination:       98.6713 deg
RA of node:       205.5290 deg
Eccentricity:    0.0011672
Arg of perigee:   268.4380 deg
Mean anomaly:      91.5463 deg
Mean motion:   14.25397533 rev/day
Decay rate:       -1.0e-08 rev/day^2
Epoch rev:           68723
Checksum:              296

Satellite: MET-3/5
Catalog number: 21655
Epoch time:      04217.91367244
Element set:    0732
Inclination:      082.5549 deg
RA of node:       022.0865 deg
Eccentricity:    0.0012502
Arg of perigee:   309.0195 deg
Mean anomaly:     050.9812 deg
Mean motion:   13.16994822 rev/day
Decay rate:        5.1e-07 rev/day^2
Epoch rev:           62368
Checksum:              294

Satellite: MET-2/21
Catalog number: 22782
Epoch time:      04217.88317117
Element set:     970
Inclination:       82.5519 deg
RA of node:       151.8995 deg
Eccentricity:    0.0020967
Arg of perigee:   292.4578 deg
Mean anomaly:      67.4349 deg
Mean motion:   13.83566638 rev/day
Decay rate:        6.2e-07 rev/day^2
Epoch rev:           55183
Checksum:              344

Satellite: OKEAN-4
Catalog number: 23317
Epoch time:      04217.96480624
Element set:    0477
Inclination:      082.5389 deg
RA of node:       192.1544 deg
Eccentricity:    0.0024373
Arg of perigee:   096.7151 deg
Mean anomaly:     263.6835 deg
Mean motion:   14.81842474 rev/day
Decay rate:       2.73e-06 rev/day^2
Epoch rev:           52907
Checksum:              321

Satellite: NOAA-14
Catalog number: 23455
Epoch time:      04218.30794187
Element set:     229
Inclination:       99.1355 deg
RA of node:       254.7308 deg
Eccentricity:    0.0009447
Arg of perigee:   165.1419 deg
Mean anomaly:     195.0031 deg
Mean motion:   14.13475664 rev/day
Decay rate:        9.2e-07 rev/day^2
Epoch rev:           49487
Checksum:              317

Satellite: SICH-1
Catalog number: 23657
Epoch time:      04217.84329433
Element set:     225
Inclination:       82.5315 deg
RA of node:       333.0837 deg
Eccentricity:    0.0025948
Arg of perigee:    82.3123 deg
Mean anomaly:     278.1039 deg
Mean motion:   14.80884900 rev/day
Decay rate:       2.85e-06 rev/day^2
Epoch rev:           48113
Checksum:              295

Satellite: NOAA-15
Catalog number: 25338
Epoch time:      04218.26629181
Element set:     685
Inclination:       98.5183 deg
RA of node:       230.1424 deg
Eccentricity:    0.0010283
Arg of perigee:   195.6724 deg
Mean anomaly:     164.4107 deg
Mean motion:   14.24441667 rev/day
Decay rate:        6.0e-07 rev/day^2
Epoch rev:           32377
Checksum:              295

Satellite: RESURS
Catalog number: 25394
Epoch time:      04217.96031875
Element set:    0871
Inclination:      098.5782 deg
RA of node:       289.5160 deg
Eccentricity:    0.0001916
Arg of perigee:   031.8466 deg
Mean anomaly:     328.2828 deg
Mean motion:   14.24016821 rev/day
Decay rate:        2.2e-07 rev/day^2
Epoch rev:           31544
Checksum:              300

Satellite: FENGYUN1
Catalog number: 25730
Epoch time:      04218.61347477
Element set:     200
Inclination:       98.6032 deg
RA of node:       227.0836 deg
Eccentricity:    0.0013635
Arg of perigee:   282.5893 deg
Mean anomaly:      77.3627 deg
Mean motion:   14.11774567 rev/day
Decay rate:      -2.74e-06 rev/day^2
Epoch rev:           26998
Checksum:              317

Satellite: OKEAN-0
Catalog number: 25860
Epoch time:      04217.92342852
Element set:    0231
Inclination:      097.7941 deg
RA of node:       251.1274 deg
Eccentricity:    0.0001880
Arg of perigee:   110.8969 deg
Mean anomaly:     249.2442 deg
Mean motion:   14.73095940 rev/day
Decay rate:        4.3e-07 rev/day^2
Epoch rev:           27144
Checksum:              291

Satellite: NOAA-16
Catalog number: 26536
Epoch time:      04218.36469517
Element set:     971
Inclination:       98.9662 deg
RA of node:       169.8147 deg
Eccentricity:    0.0009832
Arg of perigee:   236.0314 deg
Mean anomaly:     123.9924 deg
Mean motion:   14.12138105 rev/day
Decay rate:        8.3e-07 rev/day^2
Epoch rev:           19948
Checksum:              328

Satellite: NOAA-17
Catalog number: 27453
Epoch time:      04218.29455097
Element set:     995
Inclination:       98.6981 deg
RA of node:       290.0237 deg
Eccentricity:    0.0010884
Arg of perigee:   249.6005 deg
Mean anomaly:     110.4005 deg
Mean motion:   14.23555968 rev/day
Decay rate:       2.29e-06 rev/day^2
Epoch rev:           10989
Checksum:              328

>/EX
SB KEPS @ AMSAT  $ORB04218.M
Orbital Elements  04218.MISC

HR AMSAT ORBITAL ELEMENTS FOR MANNED AND MISCELLANEOUS SATELLITES
FROM WA5QGD FORT WORTH,TX August 5, 2004
SEND SUBSCRIBE/UNSUBSCRIBE TO majordomo@amsat.org ONLY
BID: ORB04218.M
TO ALL RADIO AMATEURS BT

Satellite: HUBBLE
Catalog number: 20580
Epoch time:      04217.97658980
Element set:    0127
Inclination:      028.4657 deg
RA of node:       168.4173 deg
Eccentricity:    0.0003934
Arg of perigee:   163.6735 deg
Mean anomaly:     196.3984 deg
Mean motion:   14.99242430 rev/day
Decay rate:       4.41e-06 rev/day^2
Epoch rev:           58273
Checksum:              324

Satellite: UARS
Catalog number: 21701
Epoch time:      04218.75012722
Element set:     239
Inclination:       56.9811 deg
RA of node:        28.5145 deg
Eccentricity:    0.0006986
Arg of perigee:   104.6439 deg
Mean anomaly:     255.5314 deg
Mean motion:   15.03585484 rev/day
Decay rate:      -5.49e-06 rev/day^2
Epoch rev:           70604
Checksum:              290

